AirNav   Everest Fuels
 
 450 users online  

7PS6 Allegheny Valley Hospital Heliport
Natrona Heights, Pennsylvania, USA

GOING TO NATRONA HEIGHTS?


FAA INFORMATION EFFECTIVE 02 JANUARY 2020

Location

FAA Identifier: 7PS6
Lat/Long: 40-37-08.8800N 079-44-16.2600W
40-37.148000N 079-44.271000W
40.6191333,-79.7378500
(estimated)
Elevation: 965 ft. / 294 m (estimated)
Variation: 08W (1985)
From city: 1 mile E of NATRONA HEIGHTS, PA
Time zone: UTC -5 (UTC -4 during Daylight Saving Time)
Zip code: 15065

Heliport Operations

Heliport use: Private use, MEDICAL USE.
Activation date: 12/1987
Control tower: no
ARTCC: CLEVELAND CENTER
FSS: ALTOONA FLIGHT SERVICE STATION
Attendance: UNATNDD
Segmented circle: no

Heliport Communications

WX AWOS-3PT at BTP (14 nm NW): 121.450 (724-586-6434)
WX AWOS-A at 42PN (16 nm SW): PHONE 412-442-2213
WX ASOS at AGC (18 nm SW): 120.55 (412-466-8968)

Nearby radio navigation aids

VOR radial/distance  VOR name  Freq  Var
AGCr043/24.7ALLEGHENY VOR/DME110.0009W
EWCr128/24.8ELLWOOD CITY VOR/DME115.8008W
CIPr208/34.1CLARION VOR/DME112.9006W

 
NDB name  Hdg/Dist  Freq  Var  ID
CASTLE137/39.227209WUCP ..- -.-. .--.

Heliport Services

Runway Information

Helipad H1

Dimensions: 20 x 20 ft. / 6 x 6 m
Surface: concrete
Latitude: 40-37.148000N
Longitude: 079-44.271000W
Elevation: 965.0 ft.
Traffic pattern: leftleft

Heliport Ownership and Management from official FAA records

Ownership: Privately-owned
Owner: ALLEGHENY VALLEY HOSPITAL
1301 CARLISLE STREET
NATRONA HEIGHTS, PA 15065
Phone 412-226-7356
Manager: LAWRENCE LEJEUNE
1301 CARLISLE STREET
NATRONA HEIGHTS, PA 15065
Phone (412) 226-7499

Additional Remarks

FOR CD CTC PITTSBURGH APCH AT 412-472-5591

Instrument Procedures

There are no published instrument procedures at 7PS6.

Some nearby airports with instrument procedures:

6P7 - McVille Airport (9 nm NE)
KBTP - Pittsburgh/Butler Regional Airport (14 nm NW)
KAGC - Allegheny County Airport (18 nm SW)
KPJC - Zelienople Municipal Airport (22 nm NW)
KPIT - Pittsburgh International Airport (24 nm W)
 
Loc | Ops | Rwys | IFR | FBO | Links
Com | Nav | Svcs | Stats | Notes
Area around 7PS6 (Allegheny Valley Hospital Heliport)
 
Road maps at: MapQuest Bing Google
 
Aerial photo
No photo
 
Sectional chart

 
Airport distance calculator
Flying to Allegheny Valley Hospital Heliport? Find the distance to fly.

From to 7PS6

Sunrise and sunset
Times for 18-Jan-2020
 Local
(UTC-5)
 Zulu
(UTC)
Morning civil twilight07:1012:10
Sunrise07:4012:40
Sunset17:1922:19
Evening civil twilight17:4822:48

Current date and time
Zulu (UTC)  18-Jan-2020 09:55:14
Local (UTC-5)  18-Jan-2020 04:55:14
 
METAR
KBTP 
13nm NW 
180942Z AUTO 08020G27KT 4SM -SN BR SCT011 BKN041 OVC060 M05/M06 A3024 RMK AO2 PK WND 08027/0938 P0001 FZRANO
KAGC 
18nm SW 
180921Z 09011G18KT 6SM UP BR FEW013 BKN040 OVC080 M04/M06 A3029 RMK AO2 UPB18SNE18 P0003 T10441056
KPJC 
22nm NW 
180935Z AUTO 11010G19KT 072V152 5SM UP SCT007 BKN043 OVC070 M03/M05 A3028 RMK AO2 P0001
KP53 
25nm S 
180856Z AUTO 14008G21KT 110V190 M05/M08 A3008 RMK AO1 SLP196 60001 T10501078 58059
KPIT 
25nm W 
180922Z 11012KT 9SM BKN007 OVC034 M04/M06 A3028 RMK AO2 PLB06E22SNE22 P0001 T10441061
KLBE 
26nm SE 
180935Z AUTO 05014KT 2SM -SN FEW001 BKN014 OVC090 M03/M06 A3033 RMK AO2
TAF
KAGC 
18nm SW 
180800Z 1808/1906 10005KT 2SM -SN OVC025 TEMPO 1808/1809 1SM -SN FM181100 13008KT P6SM OVC035 FM181500 15010KT 2SM -FZRASN OVC010 FM181700 18012KT 2SM -RA OVC008 WS020/21040KT FM182000 20012G22KT 5SM -RA OVC010 FM182300 23015G25KT P6SM OVC010
NOTAMs
Click for the latest NOTAMs
NOTAMs are issued by the DoD/FAA and will open in a separate window not controlled by AirNav.

 

 
 

Would you like to see your business listed on this page?

 If your business provides an interesting product or service to pilots, flight crews, aircraft, or users of the Allegheny Valley Hospital Heliport, you should consider listing it here.  To start the listing process, click on the button below
 
Add a business
 

Other Pages about Allegheny Valley Hospital Heliport

Update a link
 
Copyright © AirNav, LLC. All rights reserved. Privacy Policy  Contact